"Pseudo-MPEC" for X89913

Created 2026 Aug 26 0:35:12 UT using Find_Orb

Click here for an explanation of pseudo-MPECs

 
 Astrometry: 
     X89913 * C2026 08 15.75329123 55 52.398-03 44 15.24   ~8OFo 21.25RVNEOCPD29
     X89913   C2026 08 15.76743323 55 51.795-03 44 29.97   ~8OFo 21.20RVNEOCPD29
     X89913   C2026 08 15.78157423 55 51.252-03 44 47.00   ~8OFo 21.17RVNEOCPD29

Station data:
(D29) Purple Mountain Observatory, XuYi Station  (N32.734363 E118.463900)
   China.  Observers H. B. Zhao, B. Li, G. Zhaori, R. Q. Hong, L. F. Hu.
   Measurers H. B. Zhao, B. Li. H. Lu, G. Zhaori. 1.04-m f/1.8 Schmidt + CCD.

Orbital elements:  X89913
   Perihelion 2027 Jan 31.428064 +/- 223 TT = 10:16:24.7 (JD 2461436.928064)
Epoch 2026 Aug 16.0 TT = JDT 2461268.5   Earth MOID: 0.3583   Ve: 0.0898
M 287.435268737 +/- 70              (J2000 ecliptic)             AutoNEOCP
n   0.430835154 +/- 0.35            Peri.  328.437485 +/- 90
a   1.736182177 +/- 0.94            Node   158.896294 +/- 42
e   0.67439115 +/- 0.26             Incl.   31.924428 +/- 30
P   2.288/835.571d         H 18.69  G  0.15   U 12.1  SR
q 0.565316270 +/- 0.993    Q 2.907048084 +/- 33.1
From 3 observations 2026 Aug. 15 (40.7 min); mean residual 0".41
Residuals in arcseconds: 
260815 D29  .15+  .38-    260815 D29  .30-  .77+    260815 D29  .15+  .38-    

Ephemerides (geocentric):
Date (UTC) HH   RA             Dec           delta  r     elong  mag " sig PA
---- --------  ------------   ------------  ------ ------ -----  --- --------
2026 08 26 01  23 47 04.602   -07 27 29.97  1.0773 2.0487 157.7 21.1  42d  91
2026 08 26 02  23 47 01.888   -07 28 31.78  1.0768 2.0484 157.8 21.1  42d  91
2026 08 26 03  23 46 59.169   -07 29 33.65  1.0763 2.0481 157.8 21.1  42d  91
2026 08 26 04  23 46 56.445   -07 30 35.58  1.0758 2.0478 157.9 21.1  42d  91
2026 08 26 05  23 46 53.717   -07 31 37.56  1.0753 2.0475 157.9 21.1  42d  91
2026 08 26 06  23 46 50.983   -07 32 39.61  1.0749 2.0472 158.0 21.1  43d  91
2026 08 26 07  23 46 48.245   -07 33 41.72  1.0744 2.0469 158.0 21.1  43d  91
2026 08 26 08  23 46 45.503   -07 34 43.89  1.0739 2.0466 158.1 21.1  43d  91
2026 08 26 09  23 46 42.755   -07 35 46.11  1.0734 2.0463 158.2 21.1  43d  91
2026 08 26 10  23 46 40.003   -07 36 48.40  1.0729 2.0460 158.2 21.1  43d  91
2026 08 26 11  23 46 37.246   -07 37 50.74  1.0725 2.0457 158.3 21.1  43d  91
2026 08 26 12  23 46 34.484   -07 38 53.15  1.0720 2.0454 158.3 21.1  43d  90
2026 08 26 13  23 46 31.717   -07 39 55.62  1.0715 2.0451 158.4 21.1  43d  90
2026 08 26 14  23 46 28.946   -07 40 58.14  1.0710 2.0448 158.4 21.1  43d  90
2026 08 26 15  23 46 26.170   -07 42 00.72  1.0705 2.0445 158.5 21.1  43d  90
2026 08 26 16  23 46 23.389   -07 43 03.37  1.0701 2.0442 158.5 21.1  43d  90
2026 08 26 17  23 46 20.603   -07 44 06.07  1.0696 2.0439 158.6 21.1  44d  90
2026 08 26 18  23 46 17.813   -07 45 08.83  1.0691 2.0436 158.6 21.1  44d  90
2026 08 26 19  23 46 15.017   -07 46 11.66  1.0686 2.0433 158.7 21.1  44d  90
2026 08 26 20  23 46 12.217   -07 47 14.54  1.0682 2.0430 158.7 21.0  44d  90
2026 08 26 21  23 46 09.413   -07 48 17.48  1.0677 2.0427 158.8 21.0  44d  90
2026 08 26 22  23 46 06.603   -07 49 20.48  1.0672 2.0424 158.8 21.0  44d  90
2026 08 26 23  23 46 03.789   -07 50 23.54  1.0667 2.0421 158.9 21.0  44d  89
2026 08 27 00  23 46 00.970   -07 51 26.66  1.0663 2.0418 158.9 21.0  44d  89
2026 08 27 01  23 45 58.146   -07 52 29.83  1.0658 2.0415 159.0 21.0  44d  89
2026 08 27 02  23 45 55.317   -07 53 33.07  1.0653 2.0412 159.1 21.0  44d  89
2026 08 27 03  23 45 52.484   -07 54 36.37  1.0648 2.0409 159.1 21.0  44d  89
2026 08 27 04  23 45 49.645   -07 55 39.72  1.0644 2.0406 159.2 21.0  44d  89
2026 08 27 05  23 45 46.802   -07 56 43.14  1.0639 2.0403 159.2 21.0  44d  89
2026 08 27 06  23 45 43.955   -07 57 46.61  1.0634 2.0400 159.3 21.0  44d  89
2026 08 27 07  23 45 41.102   -07 58 50.14  1.0630 2.0397 159.3 21.0  44d  89
2026 08 27 08  23 45 38.245   -07 59 53.73  1.0625 2.0393 159.4 21.0  44d  89
2026 08 27 09  23 45 35.383   -08 00 57.38  1.0620 2.0390 159.4 21.0  44d  89
2026 08 27 10  23 45 32.516   -08 02 01.09  1.0616 2.0387 159.5 21.0  44d  89
2026 08 27 11  23 45 29.644   -08 03 04.86  1.0611 2.0384 159.5 21.0  44d  89
2026 08 27 12  23 45 26.768   -08 04 08.69  1.0606 2.0381 159.6 21.0  44d  89
2026 08 27 13  23 45 23.887   -08 05 12.57  1.0601 2.0378 159.6 21.0  44d  89
2026 08 27 14  23 45 21.001   -08 06 16.52  1.0597 2.0375 159.7 21.0  44d  89
2026 08 27 15  23 45 18.110   -08 07 20.52  1.0592 2.0372 159.7 21.0  44d  89
2026 08 27 16  23 45 15.215   -08 08 24.58  1.0587 2.0369 159.8 21.0  44d  89
2026 08 27 17  23 45 12.314   -08 09 28.70  1.0583 2.0366 159.8 21.0  44d  88
2026 08 27 18  23 45 09.409   -08 10 32.88  1.0578 2.0363 159.9 21.0  44d  88
2026 08 27 19  23 45 06.499   -08 11 37.12  1.0574 2.0360 159.9 21.0  44d  88
2026 08 27 20  23 45 03.585   -08 12 41.41  1.0569 2.0357 160.0 21.0  44d  88
2026 08 27 21  23 45 00.665   -08 13 45.77  1.0564 2.0354 160.0 21.0  44d  88
2026 08 27 22  23 44 57.741   -08 14 50.18  1.0560 2.0351 160.1 21.0  44d  88
2026 08 27 23  23 44 54.812   -08 15 54.65  1.0555 2.0348 160.2 21.0  44d  88
2026 08 28 00  23 44 51.878   -08 16 59.18  1.0550 2.0345 160.2 21.0  44d  88